This demonstration page uses our WeatherBlox Daily Observations layout. Learn more.

Left ArrowRight Arrow

39.95238, -75.16362

Hourly Observations for August 5, 2016

Temp ( °F °C ) Dew Point ( °F °C ) Humidity (%) Winds ( mph kmh ) Pressure ( in mb ) Visibility ( mi km ) Precip ( " mm )
12:54 am 00:54 Clear 70 21.1 60 15.6 71 71 SSE 5 7 30.09 1019 10 16 0.00 0.00
1:54 am 01:54 Clear 70 21.1 61 16.1 73 73 SSE 6 9 30.08 1019 10 16 0.00 0.00
2:54 am 02:54 Clear 70 21.1 61 16.1 73 73 SW 5 7 30.08 1019 10 16 0.00 0.00
3:54 am 03:54 Clear 70 21.1 62 16.7 76 76 SW 3 6 30.07 1018 10 16 0.00 0.00
4:54 am 04:54 Clear 69 20.6 63 17.2 81 81 SSW 3 6 30.06 1018 10 16 0.00 0.00
5:54 am 05:54 Mostly Clear 70 21.1 64 17.8 82 82 SSW 3 6 30.06 1018 10 16 0.00 0.00
6:54 am 06:54 Mostly Sunny 70 21.1 64 17.8 82 82 W 5 7 30.06 1018 10 16 0.00 0.00
7:54 am 07:54 Mostly Sunny 72 22.2 63 17.2 73 73 SW 6 9 30.06 1018 10 16 0.00 0.00
8:54 am 08:54 Mostly Sunny 75 23.9 63 17.2 66 66 VRB 5 7 30.06 1018 10 16 0.00 0.00
9:54 am 09:54 Mostly Sunny 77 25 64 17.8 64 64 SSW 5 7 30.04 1017 10 16 0.00 0.00
10:54 am 10:54 Partly Cloudy 79 26.1 64 17.8 60 60 WSW 6 9 30.04 1017 10 16 0.00 0.00
11:54 am 11:54 Mostly Cloudy 81 27.2 63 17.2 54 54 SSW 8 13 30.02 1017 10 16 0.00 0.00
12:54 pm 12:54 Mostly Cloudy 82 27.8 64 17.8 55 55 S 7 11 30.00 1016 10 16 0.00 0.00
1:54 pm 13:54 Mostly Cloudy 84 28.9 63 17.2 49 49 SW 12 19 29.99 1016 10 16 0.00 0.00
2:54 pm 14:54 Mostly Cloudy 84 28.9 62 16.7 48 48 SW 16 26 29.99 1016 10 16 0.00 0.00
3:54 pm 15:54 Partly Cloudy 84 28.9 63 17.2 49 49 WSW 13 20 29.96 1015 10 16 0.00 0.00
4:54 pm 16:54 Partly Cloudy 84 28.9 62 16.7 48 48 S 12 19 29.94 1014 10 16 0.00 0.00
5:54 pm 17:54 Partly Cloudy 83 28.3 62 16.7 49 49 SSW 10 17 29.92 1013 10 16 0.00 0.00
6:54 pm 18:54 Mostly Cloudy 82 27.8 62 16.7 51 51 SSW 9 15 29.92 1013 10 16 0.00 0.00
7:54 pm 19:54 Mostly Cloudy 81 27.2 63 17.2 54 54 S 9 15 29.91 1013 10 16 0.00 0.00
8:54 pm 20:54 Partly Cloudy 78 25.6 61 16.1 56 56 S 10 17 29.91 1013 10 16 0.00 0.00
9:54 pm 21:54 Partly Cloudy 76 24.4 63 17.2 64 64 S 13 20 29.91 1013 10 16 0.00 0.00
10:54 pm 22:54 Mostly Cloudy 76 24.4 66 18.9 72 72 S 8 13 29.90 1013 10 16 0.00 0.00
11:17 pm 23:17 Mostly Cloudy 76 24.4 66 18.9 72 72 S 8 13 29.91 1013 10 16 0.00 0.00
11:54 pm 23:54 Cloudy 76 24.4 66 18.9 72 72 S 7 11 29.89 1012 10 16 0.00 0.00

Powered by AerisWeather